| time (UTC) | temp F | wind direction | speed knots | gust knots | rain 1hr in | rain 24hr in | rain mn in | humidity % | barometer mb |
| 20260506033044 | 55 | 252 | 0.0 | 0.0 | 0.00 | 0.00 | 0.00 | 89 | 1017.0 |
| 20260506031534 | 55 | 244 | 0.0 | 0.0 | 0.00 | 0.00 | 0.00 | 89 | 1016.8 |
| 20260506030012 | 56 | 244 | 0.0 | 1.7 | 0.00 | 0.00 | 0.00 | 89 | 1016.7 |
| 20260506024549 | 56 | 244 | 0.9 | 3.5 | 0.00 | 0.00 | 0.00 | 88 | 1016.5 |
| 20260506023025 | 56 | 254 | 0.0 | 5.2 | 0.00 | 0.00 | 0.00 | 88 | 1016.5 |
| 20260506021559 | 56 | 232 | 0.9 | 1.7 | 0.00 | 0.00 | 0.00 | 87 | 1016.4 |
| 20260506020041 | 57 | 216 | 1.7 | 4.3 | 0.00 | 0.00 | 0.00 | 86 | 1016.4 |
| 20260506014516 | 57 | 226 | 0.0 | 3.5 | 0.00 | 0.00 | 0.00 | 86 | 1016.2 |
| 20260506013057 | 57 | 224 | 0.0 | 4.3 | 0.00 | 0.00 | 0.00 | 85 | 1016.3 |
| 20260506011600 | 58 | 219 | 1.7 | 7.8 | 0.00 | 0.00 | 0.00 | 85 | 1016.1 |
| 20260506010017 | 58 | 220 | 1.7 | 5.2 | 0.00 | 0.00 | 0.00 | 84 | 1016.0 |
| 20260506004605 | 59 | 265 | 0.9 | 5.2 | 0.00 | 0.00 | 0.00 | 84 | 1016.0 |
| 20260506003035 | 59 | 215 | 0.0 | 3.5 | 0.00 | 0.00 | 0.00 | 83 | 1015.9 |
| 20260506001516 | 59 | 257 | 0.0 | 6.1 | 0.00 | 0.00 | 0.00 | 82 | 1015.9 |
| 20260506000118 | 60 | 256 | 1.7 | 8.7 | 0.00 | 0.00 | 0.00 | 81 | 1016.0 |
| 20260505234543 | 61 | 233 | 2.6 | 7.0 | 0.00 | 0.00 | 0.00 | 80 | 1015.8 |
| 20260505233016 | 62 | 215 | 0.9 | 7.8 | 0.00 | 0.00 | 0.00 | 79 | 1016.0 |
| 20260505231611 | 62 | 243 | 2.6 | 7.8 | 0.00 | 0.00 | 0.00 | 78 | 1016.0 |
| 20260505230059 | 62 | 198 | 3.5 | 10.4 | 0.00 | 0.00 | 0.00 | 78 | 1016.1 |
| 20260505224532 | 62 | 279 | 3.5 | 10.4 | 0.00 | 0.00 | 0.00 | 77 | 1015.9 |
| 20260505223015 | 63 | 215 | 2.6 | 12.2 | 0.00 | 0.00 | 0.00 | 78 | 1016.0 |
| 20260505221557 | 64 | 271 | 2.6 | 8.7 | 0.00 | 0.00 | 0.00 | 77 | 1016.0 |
| 20260505220032 | 64 | 237 | 1.7 | 10.4 | 0.00 | 0.00 | 0.00 | 76 | 1016.0 |
| 20260505214512 | 64 | 234 | 5.2 | 12.2 | 0.00 | 0.00 | 0.00 | 74 | 1015.9 |
| 20260505213046 | 64 | 230 | 2.6 | 8.7 | 0.00 | 0.00 | 0.00 | 76 | 1016.0 |
| 20260505211541 | 64 | 232 | 1.7 | 7.0 | 0.00 | 0.00 | 0.00 | 76 | 1016.0 |
| 20260505210012 | 64 | 255 | 2.6 | 8.7 | 0.00 | 0.00 | 0.00 | 76 | 1016.0 |
| 20260505204553 | 64 | 259 | 1.7 | 7.0 | 0.00 | 0.00 | 0.00 | 75 | 1016.1 |
| 20260505203031 | 64 | 273 | 4.3 | 9.6 | 0.00 | 0.00 | 0.00 | 74 | 1016.1 |
| 20260505201512 | 64 | 237 | 0.9 | 6.1 | 0.00 | 0.00 | 0.00 | 77 | 1016.1 |
| 20260505200049 | 64 | 254 | 0.9 | 8.7 | 0.00 | 0.00 | 0.00 | 78 | 1016.2 |
| 20260505194536 | 64 | 217 | 2.6 | 7.8 | 0.00 | 0.00 | 0.00 | 79 | 1016.2 |
| 20260505193015 | 62 | 232 | 3.5 | 7.8 | 0.00 | 0.00 | 0.00 | 79 | 1016.4 |
| 20260505191555 | 61 | 346 | 0.9 | 6.1 | 0.00 | 0.00 | 0.00 | 81 | 1016.3 |
| 20260505190036 | 60 | 265 | 0.9 | 7.0 | 0.00 | 0.00 | 0.00 | 82 | 1016.4 |
| 20260505184514 | 60 | 231 | 0.9 | 6.1 | 0.00 | 0.00 | 0.00 | 83 | 1016.2 |
| 20260505183047 | 60 | 325 | 0.9 | 3.5 | 0.00 | 0.00 | 0.00 | 82 | 1016.3 |
| 20260505181526 | 60 | 308 | 0.9 | 3.5 | 0.00 | 0.00 | 0.00 | 83 | 1016.2 |
| 20260505180013 | 59 | 241 | 0.9 | 5.2 | 0.00 | 0.00 | 0.00 | 84 | 1016.2 |
| 20260505174545 | 59 | 293 | 0.0 | 1.7 | 0.00 | 0.00 | 0.00 | 84 | 1016.3 |
| 20260505173028 | 58 | 238 | 0.0 | 2.6 | 0.00 | 0.00 | 0.00 | 84 | 1016.2 |
| 20260505171507 | 57 | 343 | 0.0 | 1.7 | 0.00 | 0.00 | 0.00 | 86 | 1016.1 |
| 20260505170043 | 58 | 342 | 0.0 | 2.6 | 0.00 | 0.00 | 0.00 | 86 | 1016.2 |
| 20260505164526 | 57 | 28 | 0.0 | 2.6 | 0.00 | 0.00 | 0.00 | 86 | 1016.2 |
| 20260505163100 | 56 | 28 | 0.9 | 2.6 | 0.00 | 0.00 | 0.00 | 85 | 1016.1 |
| 20260505163001 | 56 | 28 | 0.0 | 2.6 | 0.00 | 0.00 | 0.00 | 84 | 1016.1 |
| 20260505161540 | 56 | 42 | 0.0 | 1.7 | 0.00 | 0.00 | 0.00 | 89 | 1016.2 |
| 20260505153039 | 54 | 42 | 0.0 | 2.6 | 0.00 | 0.00 | 0.00 | 97 | 1016.0 |
| 20260505151516 | 54 | 42 | 0.0 | 2.6 | 0.00 | 0.00 | 0.00 | 98 | 1015.9 |
| 20260505150116 | 53 | 42 | 0.0 | 0.0 | 0.00 | 0.00 | 0.00 | 98 | 1015.8 |
| 20260505124507 | 53 | 148 | 0.0 | 0.0 | 0.00 | 0.00 | 0.00 | 99 | 1015.4 |
| 20260505123053 | 53 | 148 | 0.0 | 0.0 | 0.00 | 0.00 | 0.00 | 99 | 1015.3 |
| 20260505121532 | 53 | 148 | 0.0 | 0.0 | 0.00 | 0.00 | 0.00 | 99 | 1015.2 |
| 20260505120057 | 53 | 148 | 0.0 | 0.0 | 0.00 | 0.00 | 0.00 | 99 | 1015.2 |
| 20260505120005 | 53 | 148 | 0.0 | 0.0 | 0.00 | 0.00 | 0.00 | 99 | 1015.1 |
| 20260505114542 | 53 | 148 | 0.0 | 0.0 | 0.00 | 0.00 | 0.00 | 98 | 1015.1 |
| 20260505113026 | 53 | 148 | 0.0 | 0.0 | 0.00 | 0.00 | 0.00 | 98 | 1015.0 |
| 20260505111503 | 53 | 148 | 0.0 | 0.0 | 0.00 | 0.00 | 0.00 | 98 | 1015.0 |
| 20260505101546 | 53 | 148 | 0.0 | 0.0 | 0.00 | 0.00 | 0.00 | 98 | 1015.0 |
| 20260505100037 | 53 | 148 | 0.0 | 0.0 | 0.00 | 0.00 | 0.00 | 98 | 1015.0 |
| 20260505094513 | 53 | 148 | 0.0 | 0.0 | 0.00 | 0.00 | 0.00 | 98 | 1015.2 |
| 20260505093052 | 53 | 148 | 0.0 | 0.0 | 0.00 | 0.00 | 0.00 | 98 | 1015.3 |
| 20260505091535 | 53 | 148 | 0.0 | 0.0 | 0.00 | 0.00 | 0.00 | 97 | 1015.2 |
| 20260505090006 | 53 | 148 | 0.0 | 0.0 | 0.00 | 0.00 | 0.00 | 97 | 1015.4 |
| 20260505084547 | 53 | 148 | 0.0 | 0.0 | 0.00 | 0.00 | 0.00 | 97 | 1015.5 |
| 20260505083032 | 53 | 148 | 0.0 | 0.0 | 0.00 | 0.00 | 0.00 | 97 | 1015.5 |
| 20260505081601 | 53 | 148 | 0.0 | 0.0 | 0.00 | 0.00 | 0.00 | 97 | 1015.6 |
| 20260505081503 | 53 | 148 | 0.0 | 0.0 | 0.00 | 0.00 | 0.00 | 97 | 1015.7 |
| 20260505080049 | 53 | 148 | 0.0 | 0.0 | 0.00 | 0.01 | 0.00 | 97 | 1015.7 |
| 20260505074518 | 53 | 148 | 0.0 | 0.0 | 0.00 | 0.01 | 0.00 | 96 | 1015.7 |
| 20260505073007 | 54 | 148 | 0.0 | 0.0 | 0.00 | 0.01 | 0.00 | 96 | 1015.8 |
| 20260505071548 | 54 | 148 | 0.0 | 0.0 | 0.00 | 0.01 | 0.00 | 96 | 1015.7 |
| 20260505070030 | 54 | 148 | 0.0 | 0.0 | 0.00 | 0.02 | 0.01 | 96 | 1015.7 |
| 20260505064609 | 54 | 148 | 0.0 | 0.0 | 0.00 | 0.02 | 0.01 | 96 | 1015.7 |
| 20260505064501 | 54 | 148 | 0.0 | 0.0 | 0.00 | 0.02 | 0.01 | 96 | 1015.6 |
| 20260505063053 | 54 | 148 | 0.0 | 0.0 | 0.00 | 0.02 | 0.01 | 96 | 1015.6 |
| 20260505061539 | 54 | 148 | 0.0 | 0.0 | 0.00 | 0.02 | 0.01 | 96 | 1015.6 |
| 20260505060019 | 54 | 148 | 0.0 | 0.0 | 0.00 | 0.02 | 0.01 | 95 | 1015.6 |
| 20260505054618 | 54 | 148 | 0.0 | 0.0 | 0.00 | 0.02 | 0.01 | 95 | 1015.7 |
| 20260505053045 | 54 | 148 | 0.0 | 0.0 | 0.00 | 0.02 | 0.01 | 95 | 1015.7 |
| 20260505051526 | 54 | 148 | 0.0 | 0.0 | 0.00 | 0.02 | 0.01 | 95 | 1015.8 |
| 20260505041509 | 55 | 249 | 0.0 | 0.0 | 0.00 | 0.02 | 0.01 | 94 | 1015.6 |
| 20260505040045 | 55 | 249 | 0.0 | 0.0 | 0.00 | 0.02 | 0.01 | 94 | 1015.3 |
| 20260505034525 | 55 | 249 | 0.0 | 0.0 | 0.00 | 0.02 | 0.01 | 93 | 1015.1 |